Volver al catálogo

FENGYUN 1C DEB

ActivoSSO
NORAD 37919·DEBRIS·🇨🇳 China

Lanzado May 10, 1999 desde Taiyuan Satellite Launch Center

Loading…

Próximos Pases (próximas 24 horas)

TLE

ActualizadoSource: Space-Track

Época: Sep 14, 2026, 14:24 UTC

1 37919U 99025ENU 26257.60044061  .00000626  00000-0  27227-3 0  9994
2 37919  99.0828 210.6978 0047730 301.4128  58.2388 14.27316142688434

Sigue FENGYUN 1C DEB en tiempo real con AllMySat

Download on the App Store